QPF
0.05 0.05 0.04 0.05 0.04 0.05 0.06 0.06 0.05 0.04 0.04 0.02 0.02 0.03 0.03 0.03 0.01 0.02 0.02 0.02 0.03 0.03 0.04 0.05 0.06 0.06 0.06 0.05 0.06 0.05 0.05 0.04 0.03 0.03 0.03 0.04 0.04 0.03 0.04 0.04 0.03 0.03 0.03
0.06 0.05 0.05 0.06 0.05 0.05 0.06 0.05 0.04 0.05 0.04 0.03 0.03 0.03 0.02 0.03 0.04 0.02 0.02 0.02 0.03 0.03 0.04 0.05 0.07 0.09 0.07 0.05 0.06 0.06 0.05 0.05 0.05 0.04 0.04 0.04 0.03 0.03 0.03 0.02 0.03 0.02 0.02
0.06 0.07 0.07 0.06 0.05 0.04 0.04 0.04 0.03 0.04 0.04 0.04 0.04 0.04 0.03 0.02 0.03 0.03 0.02 0.02 0.03 0.03 0.03 0.04 0.06 0.07 0.07 0.07 0.08 0.10 0.08 0.07 0.08 0.07 0.05 0.04 0.04 0.04 0.03 0.03 0.04 0.04 0.04
0.04 0.05 0.05 0.05 0.05 0.04 0.04 0.04 0.04 0.05 0.05 0.05 0.05 0.04 0.03 0.03 0.03 0.04 0.03 0.03 0.04 0.03 0.03 0.02 0.03 0.04 0.05 0.06 0.06 0.08 0.08 0.07 0.06 0.05 0.05 0.06 0.06 0.05 0.04 0.03 0.02 0.03 0.04
0.03 0.05 0.06 0.07 0.04 0.04 0.06 0.04 0.05 0.06 0.05 0.06 0.04 0.03 0.02 0.02 0.02 0.03 0.02 0.02 0.02 0.02 0.03 0.03 0.02 0.03 0.05 0.08 0.08 0.09 0.11 0.09 0.07 0.06 0.08 0.09 0.08 0.08 0.05 0.03 0.03 0.03 0.02
0.04 0.05 0.05 0.04 0.03 0.04 0.07 0.08 0.08 0.08 0.08 0.09 0.08 0.03 0.01 0.01 0.01 0.02 0.01 0.01 0.01 0.01 0.02 0.03 0.05 0.03 0.04 0.05 0.07 0.07 0.09 0.11 0.11 0.09 0.08 0.08 0.09 0.09 0.05 0.02 0.02 0.02 0.02
0.04 0.05 0.05 0.06 0.04 0.05 0.06 0.08 0.08 0.06 0.07 0.07 0.07 0.04 0.01 0.01 0.01 0.02 0.02 0.01 0.01 0.02 0.01 0.02 0.03 0.04 0.04 0.04 0.04 0.04 0.06 0.09 0.11 0.11 0.07 0.07 0.07 0.06 0.04 0.03 0.02 0.02 0.01
0.03 0.03 0.06 0.05 0.05 0.06 0.06 0.08 0.07 0.06 0.05 0.05 0.06 0.05 0.04 0.04 0.02 0.01 0.02 0.02 0.02 0.03 0.01 0.01 0.01 0.02 0.02 0.04 0.04 0.03 0.04 0.05 0.06 0.08 0.08 0.07 0.06 0.04 0.04 0.03 0.03 0.02 0.02
0.02 0.02 0.03 0.04 0.05 0.04 0.05 0.07 0.08 0.08 0.07 0.05 0.05 0.06 0.06 0.06 0.05 0.02 0.02 0.02 0.03 0.03 0.03 0.01 0.01 0.01 0.02 0.03 0.03 0.03 0.02 0.02 0.02 0.04 0.06 0.05 0.05 0.04 0.03 0.03 0.03 0.03 0.02
0.01 0.01 0.02 0.03 0.04 0.03 0.06 0.07 0.08 0.07 0.08 0.08 0.08 0.06 0.06 0.06 0.07 0.05 0.03 0.02 0.03 0.03 0.03 0.02 0.01 0.02 0.02 0.03 0.02 0.02 0.04 0.03 0.01 0.02 0.03 0.03 0.03 0.03 0.03 0.03 0.03 0.03 0.02
0.02 0.02 0.02 0.03 0.04 0.05 0.07 0.10 0.10 0.07 0.06 0.06 0.07 0.07 0.06 0.06 0.06 0.07 0.06 0.04 0.03 0.02 0.03 0.02 0.02 0.02 0.02 0.02 0.02 0.01 0.02 0.01 0.00 0.01 0.01 0.01 0.02 0.02 0.03 0.03 0.03 0.04 0.04
0.01 0.01 0.02 0.04 0.03 0.04 0.08 0.10 0.08 0.07 0.05 0.04 0.06 0.07 0.07 0.07 0.07 0.07 0.06 0.06 0.05 0.02 0.01 0.01 0.01 0.01 0.01 0.01 0.02 0.01 0.01 0.00 0.00 0.01 0.01 0.00 0.01 0.01 0.02 0.02 0.05 0.07 0.07
0.01 0.01 0.02 0.04 0.04 0.04 0.06 0.07 0.06 0.06 0.05 0.06 0.07 0.06 0.05 0.04 0.05 0.04 0.04 0.04 0.05 0.03 0.02 0.02 0.01 0.01 0.01 0.03 0.05 0.03 0.01 0.01 0.00 0.01 0.01 0.00 0.01 0.01 0.01 0.01 0.02 0.03 0.05
0.01 0.02 0.02 0.03 0.04 0.04 0.04 0.06 0.05 0.05 0.06 0.06 0.05 0.06 0.06 0.05 0.05 0.04 0.04 0.04 0.05 0.06 0.05 0.03 0.02 0.01 0.01 0.03 0.05 0.04 0.03 0.02 0.01 0.01 0.00 0.00 0.01 0.01 0.01 0.01 0.02 0.02 0.02
0.01 0.01 0.02 0.03 0.03 0.04 0.04 0.05 0.06 0.06 0.07 0.07 0.07 0.07 0.07 0.07 0.08 0.06 0.05 0.05 0.06 0.07 0.06 0.04 0.03 0.02 0.02 0.03 0.04 0.04 0.05 0.03 0.02 0.02 0.01 0.00 0.00 0.00 0.01 0.01 0.02 0.02 0.02
0.02 0.03 0.04 0.04 0.03 0.04 0.05 0.06 0.05 0.06 0.07 0.08 0.06 0.05 0.06 0.06 0.06 0.07 0.05 0.05 0.07 0.08 0.07 0.05 0.05 0.04 0.03 0.02 0.02 0.04 0.10 0.06 0.02 0.02 0.01 0.01 0.00 0.00 0.01 0.01 0.01 0.02 0.02
0.02 0.03 0.04 0.04 0.04 0.04 0.06 0.07 0.04 0.05 0.05 0.06 0.05 0.06 0.07 0.07 0.07 0.07 0.07 0.06 0.06 0.06 0.06 0.05 0.03 0.03 0.03 0.04 0.03 0.03 0.06 0.06 0.03 0.04 0.02 0.01 0.01 0.00 0.00 0.01 0.01 0.01 0.01
0.02 0.02 0.03 0.04 0.04 0.04 0.05 0.05 0.04 0.04 0.05 0.05 0.05 0.05 0.05 0.04 0.05 0.05 0.05 0.05 0.05 0.05 0.05 0.05 0.04 0.03 0.02 0.02 0.02 0.03 0.04 0.05 0.04 0.04 0.03 0.02 0.02 0.01 0.01 0.01 0.01 0.01 0.01
0.02 0.02 0.03 0.03 0.04 0.05 0.05 0.04 0.06 0.06 0.06 0.06 0.06 0.06 0.05 0.05 0.05 0.05 0.05 0.06 0.05 0.05 0.04 0.03 0.03 0.03 0.02 0.01 0.01 0.02 0.05 0.05 0.04 0.04 0.03 0.03 0.02 0.02 0.02 0.02 0.01 0.01 0.01
0.03 0.03 0.04 0.05 0.05 0.04 0.05 0.04 0.05 0.07 0.08 0.08 0.08 0.08 0.07 0.07 0.07 0.07 0.06 0.05 0.04 0.03 0.03 0.02 0.02 0.02 0.01 0.01 0.01 0.02 0.03 0.04 0.04 0.03 0.02 0.03 0.03 0.03 0.02 0.01 0.01 0.00 0.01
0.03 0.03 0.04 0.04 0.04 0.04 0.03 0.03 0.04 0.04 0.06 0.06 0.06 0.07 0.07 0.06 0.05 0.05 0.04 0.04 0.03 0.03 0.03 0.03 0.02 0.02 0.01 0.01 0.01 0.01 0.01 0.02 0.02 0.03 0.03 0.04 0.03 0.02 0.01 0.01 0.00 0.00 0.00
0.06 0.06 0.06 0.06 0.05 0.04 0.04 0.03 0.03 0.03 0.03 0.04 0.04 0.05 0.05 0.04 0.04 0.04 0.04 0.04 0.04 0.03 0.03 0.02 0.02 0.02 0.02 0.02 0.02 0.02 0.02 0.02 0.03 0.04 0.04 0.03 0.03 0.02 0.01 0.01 0.00 0.00 0.00
0.05 0.04 0.03 0.03 0.03 0.03 0.03 0.03 0.03 0.03 0.03 0.03 0.03 0.04 0.03 0.03 0.03 0.03 0.03 0.03 0.02 0.02 0.02 0.02 0.02 0.02 0.02 0.03 0.03 0.04 0.03 0.03 0.03 0.03 0.03 0.02 0.02 0.02 0.01 0.01 0.01 0.00 0.00
0.05 0.05 0.04 0.04 0.04 0.04 0.04 0.04 0.03 0.03 0.03 0.03 0.03 0.04 0.04 0.04 0.03 0.03 0.02 0.02 0.02 0.02 0.01 0.01 0.01 0.01 0.02 0.03 0.03 0.03 0.03 0.03 0.02 0.02 0.02 0.02 0.02 0.02 0.02 0.02 0.02 0.01 0.00
0.07 0.08 0.07 0.07 0.07 0.06 0.06 0.05 0.04 0.03 0.03 0.03 0.02 0.02 0.03 0.03 0.04 0.03 0.02 0.02 0.02 0.02 0.01 0.01 0.00 0.01 0.01 0.01 0.01 0.02 0.02 0.02 0.01 0.01 0.02 0.02 0.02 0.02 0.02 0.02 0.02 0.01 0.01
0.06 0.08 0.09 0.09 0.08 0.08 0.08 0.07 0.06 0.04 0.04 0.03 0.02 0.02 0.02 0.03 0.03 0.03 0.03 0.03 0.03 0.02 0.02 0.01 0.01 0.00 0.00 0.01 0.01 0.01 0.01 0.02 0.02 0.02 0.02 0.02 0.03 0.03 0.03 0.02 0.03 0.02 0.01
MSLP
1014.29 1014.44 1014.55 1014.65 1014.75 1014.88 1015.07 1015.31 1015.58 1015.85 1016.09 1016.25 1016.33 1016.33 1016.27 1016.18 1016.10 1016.07 1016.11 1016.22 1016.39 1016.59 1016.80 1016.99 1017.16 1017.29 1017.40 1017.51 1017.63 1017.78 1017.96 1018.16 1018.37 1018.58 1018.78 1018.96 1019.12 1019.26 1019.40 1019.52 1019.65 1019.77 1019.89
1013.80 1013.94 1014.06 1014.17 1014.30 1014.46 1014.68 1014.95 1015.26 1015.57 1015.84 1016.04 1016.15 1016.17 1016.11 1016.00 1015.89 1015.81 1015.80 1015.86 1016.00 1016.19 1016.41 1016.64 1016.85 1017.03 1017.19 1017.32 1017.45 1017.59 1017.73 1017.90 1018.07 1018.25 1018.44 1018.63 1018.80 1018.97 1019.13 1019.28 1019.43 1019.56 1019.68
1013.28 1013.42 1013.55 1013.69 1013.85 1014.05 1014.30 1014.60 1014.93 1015.26 1015.55 1015.77 1015.89 1015.90 1015.82 1015.68 1015.52 1015.38 1015.31 1015.32 1015.42 1015.60 1015.84 1016.10 1016.37 1016.61 1016.83 1017.00 1017.15 1017.28 1017.40 1017.53 1017.66 1017.82 1017.98 1018.17 1018.36 1018.56 1018.75 1018.94 1019.11 1019.27 1019.41
1012.73 1012.89 1013.05 1013.22 1013.41 1013.64 1013.92 1014.23 1014.57 1014.91 1015.20 1015.41 1015.51 1015.51 1015.40 1015.21 1015.00 1014.80 1014.66 1014.61 1014.67 1014.83 1015.08 1015.38 1015.70 1016.00 1016.27 1016.49 1016.67 1016.80 1016.90 1017.00 1017.10 1017.22 1017.38 1017.56 1017.77 1017.99 1018.23 1018.46 1018.67 1018.86 1019.02
1012.21 1012.37 1012.55 1012.75 1012.97 1013.22 1013.51 1013.82 1014.15 1014.46 1014.73 1014.92 1015.01 1014.98 1014.84 1014.62 1014.36 1014.11 1013.91 1013.80 1013.82 1013.95 1014.19 1014.50 1014.85 1015.20 1015.52 1015.78 1015.97 1016.11 1016.21 1016.29 1016.37 1016.47 1016.61 1016.79 1017.02 1017.27 1017.54 1017.81 1018.07 1018.30 1018.50
1011.75 1011.91 1012.09 1012.29 1012.52 1012.77 1013.04 1013.33 1013.63 1013.91 1014.15 1014.31 1014.39 1014.35 1014.20 1013.97 1013.68 1013.39 1013.15 1013.00 1012.96 1013.05 1013.25 1013.55 1013.89 1014.25 1014.59 1014.87 1015.08 1015.23 1015.33 1015.40 1015.47 1015.57 1015.71 1015.90 1016.13 1016.41 1016.71 1017.01 1017.31 1017.58 1017.82
1011.40 1011.52 1011.68 1011.87 1012.07 1012.29 1012.52 1012.77 1013.02 1013.25 1013.46 1013.61 1013.68 1013.66 1013.53 1013.32 1013.04 1012.75 1012.49 1012.29 1012.20 1012.22 1012.36 1012.60 1012.90 1013.23 1013.55 1013.82 1014.04 1014.20 1014.31 1014.39 1014.47 1014.58 1014.72 1014.92 1015.17 1015.46 1015.78 1016.11 1016.43 1016.73 1017.00
1011.18 1011.25 1011.36 1011.50 1011.64 1011.80 1011.97 1012.15 1012.34 1012.53 1012.71 1012.85 1012.94 1012.96 1012.89 1012.73 1012.51 1012.24 1011.98 1011.76 1011.61 1011.55 1011.60 1011.75 1011.96 1012.22 1012.48 1012.72 1012.92 1013.08 1013.21 1013.31 1013.41 1013.54 1013.71 1013.92 1014.18 1014.48 1014.81 1015.14 1015.47 1015.79 1016.08
1011.13 1011.12 1011.15 1011.20 1011.27 1011.34 1011.43 1011.53 1011.64 1011.78 1011.94 1012.09 1012.22 1012.30 1012.32 1012.25 1012.10 1011.89 1011.65 1011.41 1011.21 1011.07 1011.01 1011.03 1011.13 1011.28 1011.45 1011.64 1011.80 1011.96 1012.09 1012.22 1012.36 1012.53 1012.73 1012.96 1013.23 1013.53 1013.85 1014.18 1014.50 1014.82 1015.12
1011.23 1011.12 1011.05 1011.00 1010.97 1010.95 1010.93 1010.94 1010.99 1011.08 1011.21 1011.38 1011.55 1011.71 1011.81 1011.85 1011.80 1011.66 1011.46 1011.22 1010.97 1010.75 1010.58 1010.47 1010.43 1010.45 1010.52 1010.62 1010.74 1010.88 1011.02 1011.18 1011.36 1011.57 1011.80 1012.06 1012.35 1012.64 1012.95 1013.26 1013.57 1013.87 1014.16
1011.44 1011.24 1011.07 1010.92 1010.78 1010.66 1010.54 1010.46 1010.43 1010.47 1010.57 1010.74 1010.95 1011.17 1011.36 1011.49 1011.53 1011.47 1011.32 1011.09 1010.81 1010.51 1010.24 1010.00 1009.83 1009.72 1009.68 1009.70 1009.77 1009.88 1010.03 1010.21 1010.43 1010.67 1010.94 1011.23 1011.53 1011.82 1012.12 1012.41 1012.69 1012.96 1013.24
1011.73 1011.45 1011.20 1010.96 1010.73 1010.50 1010.30 1010.13 1010.02 1009.99 1010.05 1010.20 1010.42 1010.68 1010.92 1011.12 1011.24 1011.24 1011.13 1010.91 1010.62 1010.27 1009.92 1009.59 1009.31 1009.09 1008.95 1008.89 1008.91 1008.99 1009.13 1009.32 1009.56 1009.83 1010.13 1010.44 1010.75 1011.05 1011.33 1011.60 1011.86 1012.10 1012.35
1012.05 1011.72 1011.41 1011.10 1010.80 1010.50 1010.22 1009.97 1009.78 1009.68 1009.69 1009.79 1009.98 1010.22 1010.48 1010.71 1010.86 1010.90 1010.82 1010.62 1010.32 1009.96 1009.57 1009.17 1008.82 1008.53 1008.32 1008.19 1008.15 1008.20 1008.32 1008.50 1008.74 1009.03 1009.34 1009.66 1009.98 1010.28 1010.57 1010.82 1011.06 1011.28 1011.51
1012.37 1012.02 1011.68 1011.34 1011.00 1010.65 1010.31 1009.99 1009.73 1009.56 1009.48 1009.51 1009.63 1009.82 1010.04 1010.24 1010.38 1010.43 1010.37 1010.19 1009.91 1009.55 1009.15 1008.75 1008.37 1008.04 1007.79 1007.62 1007.53 1007.53 1007.61 1007.77 1007.99 1008.26 1008.56 1008.88 1009.20 1009.50 1009.79 1010.04 1010.27 1010.48 1010.69
1012.66 1012.33 1012.00 1011.66 1011.30 1010.93 1010.55 1010.19 1009.87 1009.62 1009.45 1009.38 1009.40 1009.50 1009.63 1009.77 1009.87 1009.89 1009.82 1009.66 1009.41 1009.08 1008.72 1008.34 1007.97 1007.65 1007.38 1007.18 1007.06 1007.01 1007.04 1007.14 1007.31 1007.53 1007.80 1008.09 1008.40 1008.70 1008.98 1009.25 1009.48 1009.69 1009.89
1012.91 1012.63 1012.33 1012.02 1011.68 1011.32 1010.93 1010.55 1010.18 1009.86 1009.60 1009.43 1009.34 1009.31 1009.34 1009.37 1009.40 1009.37 1009.29 1009.13 1008.91 1008.64 1008.33 1008.00 1007.69 1007.39 1007.14 1006.93 1006.77 1006.67 1006.63 1006.66 1006.74 1006.89 1007.09 1007.34 1007.61 1007.89 1008.18 1008.44 1008.69 1008.91 1009.11
1013.12 1012.89 1012.65 1012.39 1012.10 1011.77 1011.40 1011.02 1010.63 1010.26 1009.93 1009.67 1009.46 1009.32 1009.23 1009.16 1009.09 1009.01 1008.89 1008.74 1008.55 1008.32 1008.08 1007.83 1007.58 1007.34 1007.11 1006.90 1006.71 1006.55 1006.44 1006.36 1006.35 1006.39 1006.50 1006.67 1006.89 1007.14 1007.41 1007.67 1007.93 1008.16 1008.37
1013.28 1013.12 1012.94 1012.74 1012.51 1012.23 1011.90 1011.54 1011.16 1010.77 1010.41 1010.08 1009.79 1009.56 1009.36 1009.19 1009.04 1008.90 1008.75 1008.59 1008.41 1008.24 1008.05 1007.87 1007.68 1007.49 1007.29 1007.09 1006.87 1006.66 1006.46 1006.28 1006.15 1006.08 1006.08 1006.15 1006.29 1006.49 1006.73 1006.98 1007.24 1007.48 1007.69
1013.39 1013.29 1013.18 1013.04 1012.87 1012.65 1012.38 1012.07 1011.72 1011.35 1010.98 1010.63 1010.30 1010.00 1009.74 1009.50 1009.29 1009.09 1008.90 1008.73 1008.57 1008.42 1008.28 1008.14 1008.01 1007.86 1007.68 1007.48 1007.24 1006.97 1006.69 1006.42 1006.18 1005.99 1005.87 1005.83 1005.88 1006.01 1006.19 1006.42 1006.65 1006.88 1007.09
1013.44 1013.39 1013.34 1013.27 1013.16 1013.00 1012.79 1012.54 1012.24 1011.92 1011.58 1011.25 1010.92 1010.61 1010.32 1010.05 1009.79 1009.55 1009.34 1009.15 1008.98 1008.84 1008.72 1008.61 1008.50 1008.37 1008.21 1008.00 1007.74 1007.43 1007.09 1006.74 1006.40 1006.10 1005.87 1005.73 1005.68 1005.72 1005.84 1006.00 1006.20 1006.40 1006.58
1013.45 1013.43 1013.42 1013.40 1013.34 1013.24 1013.09 1012.90 1012.67 1012.42 1012.14 1011.85 1011.57 1011.29 1011.01 1010.73 1010.47 1010.22 1009.98 1009.77 1009.58 1009.43 1009.30 1009.19 1009.08 1008.96 1008.79 1008.58 1008.30 1007.97 1007.58 1007.17 1006.76 1006.38 1006.07 1005.83 1005.69 1005.63 1005.66 1005.75 1005.88 1006.02 1006.15
1013.40 1013.42 1013.43 1013.43 1013.41 1013.35 1013.26 1013.13 1012.97 1012.78 1012.58 1012.36 1012.15 1011.92 1011.68 1011.44 1011.19 1010.94 1010.69 1010.46 1010.25 1010.07 1009.91 1009.77 1009.64 1009.50 1009.33 1009.11 1008.82 1008.48 1008.08 1007.64 1007.20 1006.77 1006.39 1006.08 1005.86 1005.71 1005.65 1005.65 1005.68 1005.74 1005.79
1013.33 1013.35 1013.38 1013.39 1013.39 1013.36 1013.29 1013.20 1013.10 1012.97 1012.84 1012.71 1012.56 1012.41 1012.23 1012.04 1011.82 1011.59 1011.34 1011.09 1010.85 1010.63 1010.43 1010.26 1010.09 1009.92 1009.73 1009.51 1009.23 1008.89 1008.50 1008.08 1007.63 1007.19 1006.78 1006.42 1006.13 1005.91 1005.75 1005.64 1005.57 1005.51 1005.46
1013.23 1013.25 1013.27 1013.29 1013.28 1013.25 1013.20 1013.14 1013.06 1012.99 1012.91 1012.84 1012.76 1012.67 1012.56 1012.42 1012.25 1012.04 1011.80 1011.54 1011.28 1011.03 1010.79 1010.57 1010.37 1010.17 1009.96 1009.73 1009.46 1009.15 1008.79 1008.40 1007.99 1007.57 1007.16 1006.78 1006.44 1006.15 1005.90 1005.69 1005.50 1005.33 1005.15
1013.11 1013.12 1013.13 1013.13 1013.11 1013.07 1013.01 1012.95 1012.89 1012.84 1012.80 1012.76 1012.74 1012.70 1012.65 1012.55 1012.42 1012.24 1012.02 1011.77 1011.50 1011.22 1010.95 1010.70 1010.46 1010.23 1010.01 1009.78 1009.53 1009.25 1008.94 1008.60 1008.23 1007.85 1007.46 1007.09 1006.72 1006.38 1006.05 1005.75 1005.45 1005.15 1004.86
1012.95 1012.94 1012.94 1012.92 1012.88 1012.82 1012.75 1012.68 1012.62 1012.57 1012.54 1012.53 1012.53 1012.53 1012.51 1012.45 1012.36 1012.21 1012.02 1011.78 1011.51 1011.23 1010.95 1010.67 1010.41 1010.17 1009.93 1009.70 1009.47 1009.22 1008.96 1008.67 1008.35 1008.02 1007.67 1007.31 1006.94 1006.56 1006.17 1005.78 1005.38 1004.98 1004.57
Thickness
5762 5761 5760 5759 5761 5760 5759 5758 5759 5758 5759 5760 5762 5762 5761 5760 5760 5760 5758 5754 5752 5750 5749 5748 5747 5745 5744 5742 5741 5739 5738 5736 5734 5732 5731 5729 5728 5726 5725 5724 5723 5721 5720
5762 5761 5761 5759 5760 5760 5760 5759 5760 5759 5760 5761 5762 5762 5761 5762 5760 5759 5760 5757 5753 5752 5750 5749 5748 5746 5745 5743 5742 5740 5739 5737 5735 5733 5731 5730 5728 5727 5726 5724 5723 5722 5720
5762 5761 5762 5761 5762 5761 5760 5760 5760 5760 5761 5762 5762 5762 5762 5761 5761 5759 5759 5759 5758 5754 5752 5750 5749 5748 5747 5745 5743 5742 5740 5738 5736 5734 5732 5730 5728 5727 5726 5724 5723 5722 5721
5762 5761 5763 5764 5762 5763 5762 5762 5761 5761 5761 5761 5761 5762 5763 5762 5761 5760 5760 5759 5759 5759 5756 5753 5751 5749 5748 5746 5745 5743 5741 5739 5737 5735 5733 5731 5729 5728 5726 5724 5723 5722 5721
5764 5763 5764 5764 5763 5764 5764 5764 5764 5761 5760 5759 5761 5762 5763 5763 5762 5762 5762 5761 5760 5759 5759 5755 5753 5751 5749 5748 5746 5744 5743 5741 5739 5737 5735 5733 5731 5729 5727 5725 5724 5722 5721
5765 5765 5766 5765 5765 5765 5764 5763 5760 5759 5760 5760 5763 5763 5764 5765 5764 5764 5763 5763 5762 5761 5760 5758 5756 5754 5751 5749 5747 5746 5744 5742 5740 5738 5736 5734 5732 5730 5728 5726 5725 5723 5722
5766 5765 5768 5766 5765 5765 5763 5763 5761 5760 5760 5761 5759 5760 5764 5766 5765 5764 5764 5763 5763 5762 5761 5759 5758 5757 5755 5751 5749 5747 5745 5744 5742 5740 5738 5736 5734 5731 5729 5728 5726 5725 5723
5767 5768 5767 5767 5767 5765 5762 5762 5760 5760 5761 5761 5758 5755 5755 5758 5761 5766 5764 5763 5763 5764 5763 5761 5759 5756 5756 5755 5752 5749 5747 5745 5743 5741 5739 5737 5735 5733 5731 5729 5728 5726 5725
5768 5768 5768 5768 5767 5767 5766 5762 5760 5758 5757 5760 5760 5755 5750 5750 5756 5761 5761 5762 5762 5762 5763 5761 5760 5757 5756 5755 5754 5750 5747 5745 5743 5742 5740 5738 5736 5734 5732 5730 5728 5727 5726
5769 5769 5768 5767 5766 5767 5765 5764 5764 5761 5757 5757 5758 5758 5757 5756 5750 5750 5758 5762 5761 5760 5761 5762 5761 5758 5756 5755 5752 5750 5747 5745 5743 5741 5740 5738 5736 5734 5732 5731 5729 5728 5727
5769 5769 5768 5767 5766 5766 5765 5763 5761 5760 5759 5757 5757 5756 5755 5754 5754 5749 5748 5753 5758 5761 5761 5760 5760 5759 5756 5755 5753 5750 5747 5744 5742 5740 5739 5738 5736 5734 5732 5731 5729 5728 5726
5771 5770 5768 5767 5766 5766 5764 5762 5761 5760 5759 5757 5756 5756 5755 5753 5752 5751 5748 5748 5751 5757 5759 5758 5758 5757 5755 5755 5752 5748 5745 5743 5741 5739 5737 5736 5735 5733 5732 5730 5729 5727 5726
5771 5769 5769 5766 5766 5764 5763 5762 5760 5760 5759 5755 5754 5755 5756 5756 5756 5754 5750 5749 5749 5753 5754 5756 5756 5755 5754 5752 5749 5745 5743 5741 5739 5738 5736 5734 5733 5731 5730 5729 5727 5726 5724
5772 5770 5767 5765 5764 5763 5763 5761 5762 5760 5758 5756 5756 5754 5753 5755 5755 5753 5750 5747 5744 5747 5749 5750 5753 5753 5751 5749 5746 5743 5742 5740 5738 5736 5734 5732 5731 5729 5728 5726 5724 5723 5721
5771 5768 5766 5764 5763 5761 5760 5759 5759 5757 5757 5755 5755 5753 5752 5753 5752 5752 5751 5748 5742 5738 5741 5745 5747 5749 5747 5746 5743 5741 5740 5737 5735 5733 5732 5730 5728 5726 5725 5723 5721 5720 5718
5768 5766 5765 5763 5762 5760 5758 5756 5756 5755 5753 5753 5752 5750 5749 5751 5750 5750 5749 5748 5745 5740 5737 5743 5743 5745 5743 5742 5739 5738 5737 5734 5732 5731 5729 5727 5725 5723 5722 5720 5718 5716 5715
5766 5763 5762 5761 5759 5758 5756 5754 5754 5753 5751 5750 5750 5748 5746 5745 5746 5746 5746 5745 5743 5741 5735 5739 5742 5742 5737 5736 5735 5734 5734 5732 5732 5728 5726 5724 5721 5719 5718 5716 5714 5712 5710
5764 5762 5760 5758 5756 5755 5754 5752 5750 5750 5748 5747 5747 5745 5744 5744 5741 5741 5740 5740 5739 5738 5734 5732 5734 5736 5733 5732 5731 5729 5730 5731 5729 5725 5722 5719 5717 5715 5713 5711 5709 5707 5705
5762 5761 5759 5756 5754 5753 5751 5749 5748 5747 5746 5745 5744 5742 5741 5740 5737 5737 5735 5735 5736 5736 5733 5731 5730 5731 5730 5729 5726 5725 5726 5723 5724 5722 5719 5716 5713 5711 5708 5706 5704 5702 5700
5760 5758 5756 5754 5752 5750 5748 5746 5744 5743 5741 5740 5740 5739 5739 5737 5734 5732 5732 5730 5729 5729 5728 5726 5726 5726 5724 5723 5721 5720 5720 5720 5718 5718 5715 5712 5709 5706 5704 5702 5699 5697 5695
5758 5755 5752 5750 5749 5747 5746 5742 5740 5739 5737 5736 5735 5735 5735 5733 5730 5728 5729 5727 5725 5723 5722 5721 5720 5720 5718 5715 5714 5715 5714 5713 5712 5711 5709 5709 5707 5704 5702 5698 5695 5692 5690
5754 5751 5748 5746 5744 5745 5740 5736 5733 5734 5732 5730 5729 5729 5729 5728 5724 5721 5719 5717 5716 5715 5715 5714 5714 5711 5709 5709 5707 5707 5706 5704 5702 5704 5701 5701 5701 5700 5698 5696 5691 5687 5684
5748 5745 5743 5741 5739 5737 5732 5729 5726 5726 5726 5725 5724 5722 5724 5725 5720 5718 5713 5709 5708 5707 5705 5705 5706 5705 5703 5702 5699 5699 5696 5695 5694 5696 5693 5692 5694 5692 5692 5691 5686 5682 5678
5741 5739 5737 5736 5733 5731 5726 5722 5719 5720 5720 5719 5719 5718 5716 5715 5715 5710 5709 5707 5705 5703 5700 5699 5698 5698 5697 5694 5692 5691 5689 5688 5688 5688 5686 5684 5687 5686 5687 5684 5679 5676 5673
5733 5732 5730 5729 5726 5724 5719 5716 5712 5714 5713 5713 5713 5712 5710 5708 5704 5701 5700 5698 5696 5695 5693 5691 5689 5687 5685 5683 5682 5683 5683 5681 5681 5682 5681 5677 5678 5678 5678 5678 5675 5671 5668
5725 5725 5724 5722 5720 5718 5713 5709 5705 5707 5706 5706 5706 5706 5702 5700 5695 5692 5692 5691 5687 5687 5687 5685 5681 5679 5679 5677 5674 5673 5675 5674 5675 5674 5674 5670 5670 5669 5668 5671 5670 5666 5662